N0SWP-3 Weather Reports


time (UTC)temp
C
wind
direction
speed
KPH
gust
KPH
rain 1hr
cm
rain 24hr
cm
rain mn
cm
humidity
%
barometer
mb
20260505071503 11 360 6.4 20.9 0.81 0.81 0.81 91 1007.4
20260505071203 12 35 4.8 12.9 0.79 0.79 0.79 91 1007.9
20260505070903 12 39 4.8 12.9 0.74 0.74 0.74 90 1008.4
20260505070603 12 336 4.8 17.7 0.66 0.66 0.66 89 1008.9
20260505070519 12 337 6.4 22.5 0.58 0.58 0.61 89 1009.0
20260505070004 13 341 12.9 41.8 0.36 0.36 0.36 86 1008.6
20260505065703 13 343 14.5 41.8 0.18 0.18 0.18 82 1008.1
20260505065403 14 344 14.5 41.8 0.08 0.08 0.08 78 1007.5
20260505065317 15 345 14.5 41.8 0.05 0.05 0.05 77 1007.5
20260505064803 16 348 14.5 32.2 0.00 0.00 0.00 69 1006.8
20260505064717 16 348 14.5 32.2 0.00 0.00 0.00 67 1006.7
20260505064203 18 343 14.5 38.6 0.00 0.00 0.00 60 1006.3
20260505064117 18 341 12.9 38.6 0.00 0.00 0.00 59 1006.1
20260505063603 20 327 8.0 38.6 0.00 0.00 0.00 56 1005.3
20260505063303 20 294 4.8 22.5 0.00 0.00 0.00 68 1004.9
20260505063003 20 226 3.2 14.5 0.00 0.00 0.00 73 1004.8
20260505062703 20 217 4.8 14.5 0.00 0.00 0.00 73 1004.8
20260505062403 20 213 4.8 14.5 0.00 0.00 0.00 73 1004.7
20260505062103 20 211 4.8 14.5 0.00 0.00 0.00 73 1004.6
20260505062017 20 210 3.2 11.3 0.00 0.00 0.00 72 1004.6
20260505061503 20 197 1.6 8.0 0.00 0.00 0.00 72 1004.5
20260505061203 20 192 1.6 6.4 0.00 0.00 0.00 72 1004.4
20260505060903 20 196 1.6 6.4 0.00 0.00 0.00 71 1004.1
20260505060603 20 194 1.6 6.4 0.00 0.00 0.00 72 1003.9
20260505060303 20 186 1.6 8.0 0.00 0.00 0.00 71 1003.8
20260505060003 20 159 1.6 12.9 0.00 0.00 0.00 71 1003.8
20260505055703 20 159 1.6 12.9 0.00 0.00 0.00 71 1003.8
20260505055403 20 148 1.6 12.9 0.00 0.00 0.00 71 1003.7
20260505055317 20 156 1.6 12.9 0.00 0.00 0.00 71 1003.7
20260505054803 20 174 1.6 9.7 0.00 0.00 0.00 71 1003.6
20260505054504 20 178 1.6 9.7 0.00 0.00 0.00 71 1003.7
20260505054203 20 175 1.6 6.4 0.00 0.00 0.00 71 1003.8
20260505053903 20 183 1.6 12.9 0.00 0.00 0.00 71 1003.8
20260505053603 20 177 1.6 12.9 0.00 0.00 0.00 71 1003.8
20260505053303 20 182 3.2 12.9 0.00 0.00 0.00 71 1003.8
20260505053003 20 178 3.2 12.9 0.00 0.00 0.00 71 1003.7
20260505052917 20 177 3.2 9.7 0.00 0.00 0.00 71 1003.7
20260505052403 20 180 3.2 14.5 0.00 0.00 0.00 71 1003.6
20260505052317 20 179 3.2 14.5 0.00 0.00 0.00 71 1003.6
20260505051803 20 192 1.6 14.5 0.00 0.00 0.00 71 1003.6
20260505051719 20 188 1.6 14.5 0.00 0.00 0.00 71 1003.5
20260505051203 20 167 1.6 8.0 0.00 0.00 0.00 71 1003.3
20260505051118 20 166 3.2 8.0 0.00 0.00 0.00 71 1003.2
20260505050603 20 156 3.2 9.7 0.00 0.00 0.00 71 1003.2
20260505050303 20 152 3.2 9.7 0.00 0.00 0.00 71 1003.2
20260505041503 21 164 1.6 6.4 0.00 0.00 0.00 70 1004.0
20260505041418 21 167 1.6 6.4 0.00 0.00 0.00 70 1004.0
20260505040903 21 167 1.6 8.0 0.00 0.00 0.00 70 1004.1
20260505040603 21 176 1.6 8.0 0.00 0.00 0.00 70 1004.1
20260505040303 21 182 1.6 12.9 0.00 0.00 0.00 70 1004.1
20260505040004 21 186 1.6 12.9 0.00 0.00 0.00 69 1004.3
20260505035703 21 185 3.2 12.9 0.00 0.00 0.00 69 1004.4
20260505035403 21 174 3.2 9.7 0.00 0.00 0.00 69 1004.4
20260505035318 21 173 3.2 9.7 0.00 0.00 0.00 69 1004.4
20260505034803 21 165 3.2 9.7 0.00 0.00 0.00 69 1004.3
20260505034504 21 171 3.2 11.3 0.00 0.00 0.00 69 1004.4
20260505034418 21 171 3.2 11.3 0.00 0.00 0.00 69 1004.4
20260505033903 21 178 3.2 12.9 0.00 0.00 0.00 69 1004.3
20260505033603 21 175 3.2 12.9 0.00 0.00 0.00 69 1004.2
20260505033303 21 172 3.2 11.3 0.00 0.00 0.00 69 1004.2
20260505033217 21 172 3.2 11.3 0.00 0.00 0.00 69 1004.2
20260505032704 21 164 3.2 11.3 0.00 0.00 0.00 69 1004.1
20260505032618 22 167 3.2 11.3 0.00 0.00 0.00 69 1004.1
20260505032103 22 165 3.2 11.3 0.00 0.00 0.00 69 1004.1
20260505031803 22 163 3.2 11.3 0.00 0.00 0.00 69 1004.1
20260505031503 22 159 3.2 12.9 0.00 0.00 0.00 69 1004.1
20260505031203 22 154 3.2 12.9 0.00 0.00 0.00 69 1004.0
20260505031117 22 154 3.2 12.9 0.00 0.00 0.00 69 1003.9
20260505030603 22 166 3.2 12.9 0.00 0.00 0.00 69 1004.0
20260505030304 22 161 3.2 12.9 0.00 0.00 0.00 69 1004.0
20260505030216 22 164 3.2 12.9 0.00 0.00 0.00 69 1004.0
20260505025703 22 151 3.2 11.3 0.00 0.00 0.00 69 1003.9
20260505025403 22 161 1.6 11.3 0.00 0.00 0.00 70 1003.9
20260505025104 22 161 3.2 11.3 0.00 0.00 0.00 70 1003.9
20260505024803 22 165 1.6 8.0 0.00 0.00 0.00 69 1003.9
20260505024503 22 163 1.6 8.0 0.00 0.00 0.00 69 1003.8
20260505024203 22 156 0.0 3.2 0.00 0.00 0.00 69 1003.8
20260505023903 22 157 0.0 4.8 0.00 0.00 0.00 69 1003.7
20260505023817 22 158 1.6 4.8 0.00 0.00 0.00 69 1003.7
20260505023517 22 162 1.6 4.8 0.00 0.00 0.00 68 1003.7
20260505023003 22 168 1.6 11.3 0.00 0.00 0.00 68 1003.6
20260505022703 22 169 1.6 11.3 0.00 0.00 0.00 68 1003.5
20260505022403 22 159 1.6 9.7 0.00 0.00 0.00 68 1003.4
20260505022103 22 155 1.6 9.7 0.00 0.00 0.00 67 1003.4
20260505021803 23 158 1.6 6.4 0.00 0.00 0.00 67 1003.4
20260505021503 23 160 1.6 8.0 0.00 0.00 0.00 67 1003.3
20260505021203 23 157 1.6 8.0 0.00 0.00 0.00 67 1003.3
20260505020904 23 157 1.6 8.0 0.00 0.00 0.00 66 1003.2
20260505020603 23 156 1.6 8.0 0.00 0.00 0.00 66 1003.2
20260505020303 23 163 1.6 8.0 0.00 0.00 0.00 66 1003.2
20260505020003 23 165 1.6 8.0 0.00 0.00 0.00 65 1003.2
20260505015918 23 166 1.6 8.0 0.00 0.00 0.00 65 1003.1
20260505015403 23 162 1.6 8.0 0.00 0.00 0.00 65 1003.0
20260505015103 23 168 3.2 9.7 0.00 0.00 0.00 65 1002.9
20260505014803 23 166 3.2 9.7 0.00 0.00 0.00 65 1002.9
20260505014717 23 168 3.2 9.7 0.00 0.00 0.00 65 1002.9
20260505014203 23 173 3.2 12.9 0.00 0.00 0.00 64 1002.8
20260505013903 23 178 3.2 12.9 0.00 0.00 0.00 64 1002.8
20260505013603 24 172 3.2 8.0 0.00 0.00 0.00 63 1002.6
20260505013518 24 170 3.2 8.0 0.00 0.00 0.00 63 1002.6
20260505013003 24 169 3.2 11.3 0.00 0.00 0.00 62 1002.6
20260505012703 24 169 3.2 11.3 0.00 0.00 0.00 62 1002.5
20260505012617 24 169 3.2 11.3 0.00 0.00 0.00 62 1002.5
20260505012317 24 171 3.2 11.3 0.00 0.00 0.00 61 1002.5
20260505011803 24 162 1.6 9.7 0.00 0.00 0.00 60 1002.3
20260505011504 25 165 1.6 6.4 0.00 0.00 0.00 59 1002.3
20260505011203 25 180 1.6 6.4 0.00 0.00 0.00 59 1002.3
20260505010903 25 185 1.6 8.0 0.00 0.00 0.00 59 1002.2
20260505010603 25 190 1.6 8.0 0.00 0.00 0.00 58 1002.2
20260505010303 25 187 1.6 8.0 0.00 0.00 0.00 58 1002.2
20260505010004 25 182 0.0 6.4 0.00 0.00 0.00 57 1002.1
20260505005703 25 182 0.0 6.4 0.00 0.00 0.00 58 1002.0
20260505005403 25 182 1.6 6.4 0.00 0.00 0.00 57 1001.9
20260505005103 25 191 1.6 9.7 0.00 0.00 0.00 56 1002.0
20260505004803 25 191 1.6 9.7 0.00 0.00 0.00 56 1002.0
20260505004503 25 190 3.2 9.7 0.00 0.00 0.00 56 1001.9
20260505004203 25 183 1.6 9.7 0.00 0.00 0.00 55 1001.8
20260505003903 26 184 1.6 9.7 0.00 0.00 0.00 55 1001.8
20260505003603 26 199 1.6 9.7 0.00 0.00 0.00 55 1001.9
20260505003518 26 201 1.6 9.7 0.00 0.00 0.00 55 1001.9
20260505003003 26 209 3.2 9.7 0.00 0.00 0.00 54 1001.9
20260505002917 26 208 3.2 9.7 0.00 0.00 0.00 54 1002.0
20260505002403 26 202 3.2 11.3 0.00 0.00 0.00 53 1002.0
20260505002103 26 194 3.2 11.3 0.00 0.00 0.00 53 1001.9
20260505001803 26 188 3.2 11.3 0.00 0.00 0.00 53 1001.9
20260505001716 26 184 3.2 11.3 0.00 0.00 0.00 52 1001.9
20260505001204 26 177 3.2 11.3 0.00 0.00 0.00 52 1002.0
20260505000903 27 177 1.6 11.3 0.00 0.00 0.00 51 1002.0
20260505000603 27 188 1.6 8.0 0.00 0.00 0.00 51 1001.8
20260505000303 27 195 3.2 11.3 0.00 0.00 0.00 51 1001.9
20260505000003 27 202 3.2 11.3 0.00 0.00 0.00 50 1002.0
20260504235703 27 201 3.2 11.3 0.00 0.00 0.00 50 1002.0
20260504235617 27 198 3.2 11.3 0.00 0.00 0.00 50 1002.0
20260504235317 27 199 3.2 12.9 0.00 0.00 0.00 49 1002.0
20260504234803 27 194 3.2 12.9 0.00 0.00 0.00 49 1002.1
20260504234504 27 204 4.8 12.9 0.00 0.00 0.00 48 1002.1
20260504234203 27 206 4.8 14.5 0.00 0.00 0.00 48 1002.1
20260504233904 27 210 4.8 14.5 0.00 0.00 0.00 48 1002.1
20260504233818 27 212 6.4 14.5 0.00 0.00 0.00 48 1002.1
20260504233303 28 208 4.8 19.3 0.00 0.00 0.00 47 1002.1
20260504233003 28 213 6.4 19.3 0.00 0.00 0.00 46 1002.0
20260504232917 28 212 6.4 19.3 0.00 0.00 0.00 46 1002.1
20260504232403 28 212 6.4 19.3 0.00 0.00 0.00 46 1002.1
20260504232103 28 209 4.8 12.9 0.00 0.00 0.00 46 1002.1
20260504231803 28 211 4.8 19.3 0.00 0.00 0.00 46 1002.1
20260504231503 28 212 4.8 19.3 0.00 0.00 0.00 46 1002.0
20260504231418 28 212 4.8 19.3 0.00 0.00 0.00 46 1002.1
20260504230904 29 202 3.2 11.3 0.00 0.00 0.00 46 1002.1
20260504230603 29 204 4.8 14.5 0.00 0.00 0.00 45 1002.1
20260504230303 29 206 4.8 14.5 0.00 0.00 0.00 45 1002.1
20260504230003 29 203 4.8 14.5 0.00 0.00 0.00 44 1002.1
20260504225703 29 204 4.8 12.9 0.00 0.00 0.00 45 1002.1
20260504225403 29 199 3.2 12.9 0.00 0.00 0.00 44 1002.1
20260504225103 29 201 4.8 16.1 0.00 0.00 0.00 45 1002.1
20260504224803 29 201 4.8 16.1 0.00 0.00 0.00 45 1002.0
20260504224718 29 199 4.8 16.1 0.00 0.00 0.00 45 1002.0
20260504224418 29 207 6.4 16.1 0.00 0.00 0.00 44 1002.0
20260504223904 29 207 6.4 19.3 0.00 0.00 0.00 44 1002.0
20260504223817 29 208 6.4 19.3 0.00 0.00 0.00 43 1002.0
20260504223303 29 207 8.0 24.1 0.00 0.00 0.00 43 1002.0
20260504223003 29 204 6.4 24.1 0.00 0.00 0.00 43 1002.0
20260504222703 29 200 4.8 24.1 0.00 0.00 0.00 43 1002.0
20260504222403 29 201 4.8 19.3 0.00 0.00 0.00 44 1001.8
20260504222318 29 200 6.4 19.3 0.00 0.00 0.00 45 1001.8
20260504221804 29 213 9.7 25.7 0.00 0.00 0.00 45 1001.9
20260504221503 29 214 11.3 25.7 0.00 0.00 0.00 44 1002.0
20260504221203 29 214 11.3 25.7 0.00 0.00 0.00 44 1001.9
20260504220903 30 210 8.0 20.9 0.00 0.00 0.00 43 1001.9
20260504220817 30 210 8.0 20.9 0.00 0.00 0.00 43 1001.9
20260504220303 30 195 4.8 20.9 0.00 0.00 0.00 42 1001.9
20260504220003 30 197 6.4 17.7 0.00 0.00 0.00 44 1002.0
20260504215919 30 201 6.4 20.9 0.00 0.00 0.00 44 1002.0
20260504215403 29 206 6.4 20.9 0.00 0.00 0.00 45 1001.9
20260504215318 29 207 8.0 20.9 0.00 0.00 0.00 44 1001.9
20260504214803 29 211 8.0 19.3 0.00 0.00 0.00 43 1002.1
20260504214503 29 212 8.0 20.9 0.00 0.00 0.00 44 1002.2
20260504214418 29 212 8.0 20.9 0.00 0.00 0.00 44 1002.2
20260504213904 29 212 8.0 20.9 0.00 0.00 0.00 43 1002.2
20260504213603 29 211 6.4 20.9 0.00 0.00 0.00 43 1002.3
20260504213304 30 209 4.8 20.9 0.00 0.00 0.00 42 1002.1
20260504213004 29 210 4.8 17.7 0.00 0.00 0.00 44 1002.2
20260504212703 29 211 6.4 17.7 0.00 0.00 0.00 44 1002.3
20260504212403 29 212 6.4 17.7 0.00 0.00 0.00 44 1002.3
20260504212103 28 213 8.0 17.7 0.00 0.00 0.00 44 1002.3
20260504211803 28 212 6.4 17.7 0.00 0.00 0.00 45 1002.2
20260504211503 29 211 6.4 17.7 0.00 0.00 0.00 45 1002.1
20260504211203 29 208 4.8 12.9 0.00 0.00 0.00 44 1002.2
20260504210903 29 208 6.4 16.1 0.00 0.00 0.00 44 1002.3
20260504210603 28 213 8.0 22.5 0.00 0.00 0.00 44 1002.4
20260504210303 28 213 8.0 29.0 0.00 0.00 0.00 43 1002.4
20260504210004 29 214 9.7 29.0 0.00 0.00 0.00 43 1002.5
20260504205703 29 213 9.7 29.0 0.00 0.00 0.00 41 1002.5
20260504205403 30 210 8.0 20.9 0.00 0.00 0.00 41 1002.5
20260504205103 30 209 6.4 20.9 0.00 0.00 0.00 42 1002.5
20260504204804 30 212 8.0 29.0 0.00 0.00 0.00 43 1002.5
20260504204503 29 214 9.7 29.0 0.00 0.00 0.00 43 1002.5
20260504204417 29 213 9.7 29.0 0.00 0.00 0.00 43 1002.5
20260504203903 29 212 9.7 22.5 0.00 0.00 0.00 42 1002.6
20260504203603 29 212 8.0 25.7 0.00 0.00 0.00 42 1002.7
20260504203303 29 211 6.4 25.7 0.00 0.00 0.00 41 1002.8
20260504203003 29 210 6.4 25.7 0.00 0.00 0.00 42 1002.9
20260504202703 29 211 6.4 25.7 0.00 0.00 0.00 42 1002.8
20260504202618 29 209 6.4 20.9 0.00 0.00 0.00 43 1002.8
20260504202103 28 214 6.4 20.9 0.00 0.00 0.00 42 1002.8
20260504201803 29 215 6.4 22.5 0.00 0.00 0.00 41 1002.9
20260504201503 29 213 6.4 22.5 0.00 0.00 0.00 41 1002.9
20260504201203 29 212 6.4 22.5 0.00 0.00 0.00 40 1002.9
20260504201117 30 212 6.4 22.5 0.00 0.00 0.00 40 1002.9
20260504200603 30 205 3.2 12.9 0.00 0.00 0.00 41 1002.9
20260504200519 30 204 4.8 16.1 0.00 0.00 0.00 42 1003.0
20260504200003 29 203 4.8 19.3 0.00 0.00 0.00 42 1003.0
20260504195918 29 205 4.8 19.3 0.00 0.00 0.00 43 1003.0
20260504195404 29 205 4.8 19.3 0.00 0.00 0.00 43 1003.1
20260504195103 28 209 4.8 20.9 0.00 0.00 0.00 42 1003.1
20260504194803 28 209 6.4 20.9 0.00 0.00 0.00 42 1003.2
20260504194503 28 212 6.4 20.9 0.00 0.00 0.00 41 1003.2
20260504194203 29 214 6.4 17.7 0.00 0.00 0.00 41 1003.3
20260504193903 29 215 8.0 19.3 0.00 0.00 0.00 41 1003.2
20260504193604 29 213 8.0 22.5 0.00 0.00 0.00 42 1003.2
20260504193304 29 213 8.0 22.5 0.00 0.00 0.00 41 1003.2
20260504193003 28 213 8.0 22.5 0.00 0.00 0.00 41 1003.3
20260504192703 28 212 8.0 20.9 0.00 0.00 0.00 41 1003.3
20260504192403 28 213 8.0 22.5 0.00 0.00 0.00 42 1003.4
20260504192103 28 214 9.7 22.5 0.00 0.00 0.00 43 1003.4
20260504191803 28 215 9.7 22.5 0.00 0.00 0.00 40 1003.4
20260504191503 28 217 11.3 24.1 0.00 0.00 0.00 40 1003.6
20260504191417 28 217 11.3 24.1 0.00 0.00 0.00 40 1003.5
20260504191118 28 213 9.7 24.1 0.00 0.00 0.00 41 1003.6
20260504190603 28 208 8.0 22.5 0.00 0.00 0.00 41 1003.6
20260504190303 28 201 6.4 19.3 0.00 0.00 0.00 42 1003.6
20260504190003 28 207 6.4 33.8 0.00 0.00 0.00 44 1003.5
20260504185704 28 210 9.7 33.8 0.00 0.00 0.00 45 1003.6
20260504185403 28 215 9.7 33.8 0.00 0.00 0.00 43 1003.6
20260504185103 28 216 9.7 22.5 0.00 0.00 0.00 42 1003.6
20260504184803 28 216 9.7 20.9 0.00 0.00 0.00 42 1003.7
20260504184503 28 212 9.7 20.9 0.00 0.00 0.00 42 1003.7
20260504184203 27 208 9.7 22.5 0.00 0.00 0.00 43 1003.7
20260504183903 28 211 9.7 22.5 0.00 0.00 0.00 42 1003.7
20260504183603 28 210 8.0 22.5 0.00 0.00 0.00 41 1003.7
20260504183304 28 213 6.4 22.5 0.00 0.00 0.00 43 1003.7
20260504183003 28 210 8.0 22.5 0.00 0.00 0.00 43 1003.7
20260504182703 27 214 8.0 22.5 0.00 0.00 0.00 43 1003.7
20260504182403 27 214 8.0 22.5 0.00 0.00 0.00 42 1003.8
20260504182104 27 216 8.0 19.3 0.00 0.00 0.00 43 1003.9
20260504181803 27 212 8.0 19.3 0.00 0.00 0.00 43 1003.9
20260504181504 27 214 8.0 19.3 0.00 0.00 0.00 43 1003.8
20260504181203 27 214 8.0 20.9 0.00 0.00 0.00 43 1003.8
20260504180903 27 217 9.7 25.7 0.00 0.00 0.00 44 1003.8
20260504180603 27 216 12.9 33.8 0.00 0.00 0.00 44 1003.8
20260504180303 26 219 12.9 33.8 0.00 0.00 0.00 43 1003.9
20260504180004 27 217 11.3 33.8 0.00 0.00 0.00 43 1003.9
20260504175703 27 221 9.7 27.4 0.00 0.00 0.00 44 1003.9
20260504175617 27 223 9.7 24.1 0.00 0.00 0.00 43 1004.0
20260504175103 27 218 9.7 27.4 0.00 0.00 0.00 44 1003.9
20260504174803 27 214 9.7 27.4 0.00 0.00 0.00 44 1004.0
20260504174503 27 214 9.7 27.4 0.00 0.00 0.00 44 1003.9
20260504174204 27 215 9.7 27.4 0.00 0.00 0.00 44 1004.1
20260504173903 27 211 9.7 24.1 0.00 0.00 0.00 44 1004.0
20260504173603 26 209 9.7 24.1 0.00 0.00 0.00 44 1004.1
20260504173304 26 212 11.3 29.0 0.00 0.00 0.00 44 1004.1
20260504173003 26 212 11.3 29.0 0.00 0.00 0.00 44 1004.1
20260504172704 26 213 9.7 29.0 0.00 0.00 0.00 44 1004.1
20260504172616 27 212 8.0 29.0 0.00 0.00 0.00 44 1004.1
20260504172103 27 209 6.4 20.9 0.00 0.00 0.00 45 1004.1
20260504171803 26 211 6.4 20.9 0.00 0.00 0.00 45 1004.2
20260504171503 26 212 6.4 20.9 0.00 0.00 0.00 45 1004.3
20260504171203 26 210 8.0 22.5 0.00 0.00 0.00 44 1004.1
20260504171117 26 211 9.7 27.4 0.00 0.00 0.00 44 1004.1
20260504170603 25 213 11.3 32.2 0.00 0.00 0.00 46 1004.3
20260504170303 25 215 11.3 32.2 0.00 0.00 0.00 45 1004.3
20260504160303 23 215 11.3 30.6 0.00 0.00 0.00 51 1004.3
20260504150903 21 208 8.0 22.5 0.00 0.00 0.00 54 1004.5
20260504150603 21 209 8.0 22.5 0.00 0.00 0.00 53 1004.7
20260504150304 21 207 6.4 20.9 0.00 0.00 0.00 55 1004.7
20260504141203 20 212 11.3 35.4 0.00 0.00 0.00 55 1004.5
20260504140903 20 210 11.3 35.4 0.00 0.00 0.00 54 1004.5
20260504140603 20 209 9.7 29.0 0.00 0.00 0.00 54 1004.5
20260504140303 20 209 8.0 27.4 0.00 0.00 0.00 54 1004.4
20260504130603 18 206 6.4 22.5 0.00 0.00 0.00 56 1004.6
20260504130304 18 207 6.4 22.5 0.00 0.00 0.00 56 1004.6
20260504120303 17 207 6.4 16.1 0.00 0.00 0.00 57 1004.4
20260504110603 18 193 8.0 20.9 0.00 0.00 0.00 55 1004.1
20260504110517 18 194 8.0 20.9 0.00 0.00 0.00 55 1004.1
20260504100603 18 199 8.0 24.1 0.00 0.00 0.00 52 1004.8
20260504100519 18 201 8.0 24.1 0.00 0.00 0.00 52 1004.8
20260504081803 20 210 9.7 27.4 0.00 0.00 0.00 47 1005.8
20260504081503 20 208 8.0 27.4 0.00 0.00 0.00 47 1005.9
20260504081416 20 209 8.0 27.4 0.00 0.00 0.00 47 1005.9
20260504080903 20 205 8.0 27.4 0.00 0.00 0.00 47 1006.0
20260504080603 20 207 8.0 27.4 0.00 0.00 0.00 47 1006.0
20260504080304 20 209 9.7 27.4 0.00 0.00 0.00 47 1006.1